Date String (YYYY-MM-DD hh:mm:ss) UTC,Instrument flags,Ambient pressure (hPa),Sample flow (lpm),Bypass flow (lpm),Sample temperature (°C),Ambient temperature (°C),ASC tube jacket temperature (°C),LED temperature (°C),Box temperature (°C),Sample RH (%),Span deviation,Mass concentration (μg/m³),Mass concentration (μg/m³),Mass concentration (μg/m³)
DateTimeUTC,F1_M11,P_M11,Q1_M11,Q2_M11,T1_M11,T2_M11,T3_M11,T4_M11,T5_M11,U1_M11,ZSPAN_M11,X2_M11,X0_M11,X1_M11
2023-05-08 10:00:00,,0830.7,5.00,0.00,30.0,28.3,00.0,38.5,31.4,15.8,0000.0,0003.90,0008.96,0003.17
2023-05-08 10:01:00,,0830.7,4.99,0.00,30.0,28.3,00.0,38.5,31.4,15.8,0000.0,0003.92,0009.00,0003.15
2023-05-08 10:02:00,,0830.7,5.00,0.00,30.0,28.3,00.0,38.5,31.3,15.8,0000.0,0003.90,0009.21,0003.10
2023-05-08 10:03:00,,0830.7,5.01,0.00,30.0,28.3,00.0,38.4,31.3,15.7,0000.0,0003.85,0009.21,0003.04
2023-05-08 10:04:00,,0830.7,4.99,0.00,30.0,28.2,00.0,38.4,31.3,15.5,0000.0,0003.82,0009.08,0002.98
2023-05-08 10:05:00,,0830.7,4.99,0.00,30.0,28.2,00.0,38.4,31.3,15.4,0000.0,0003.74,0008.59,0002.90
2023-05-08 10:06:00,,0830.7,5.01,0.00,29.9,28.2,00.0,38.4,31.3,15.4,0000.0,0003.65,0008.73,0002.81
2023-05-08 10:07:00,,0830.6,5.00,0.00,29.9,28.2,00.0,38.4,31.3,15.4,0000.0,0003.63,0008.78,0002.74
2023-05-08 10:08:00,,0830.6,4.99,0.00,29.9,28.2,00.0,38.4,31.3,15.4,0000.0,0003.60,0008.58,0002.67
2023-05-08 10:09:00,,0830.6,4.99,0.00,29.9,28.2,00.0,38.4,31.3,15.4,0000.0,0003.66,0008.69,0002.67
2023-05-08 10:10:00,,0830.6,5.01,0.00,29.9,28.2,00.0,38.4,31.3,15.5,0000.0,0003.68,0008.70,0002.66
2023-05-08 10:11:00,,0830.6,5.00,0.00,29.9,28.2,00.0,38.4,31.3,15.5,0000.0,0003.71,0008.79,0002.64
2023-05-08 10:12:00,,0830.6,4.99,0.00,29.9,28.2,00.0,38.4,31.4,15.7,0000.0,0003.67,0008.77,0002.60
2023-05-08 10:13:00,,0830.6,5.00,0.00,29.9,28.2,00.0,38.4,31.4,15.8,0000.0,0003.69,0008.69,0002.59
2023-05-08 10:14:00,,0830.6,5.00,0.00,29.9,28.2,00.0,38.4,31.4,15.8,0000.0,0003.75,0008.75,0002.60
2023-05-08 10:15:00,,0830.7,5.01,0.00,29.9,28.2,00.0,38.3,31.4,15.8,0000.0,0003.74,0008.75,0002.59
2023-05-08 10:16:00,,0830.7,5.00,0.00,29.9,28.2,00.0,38.3,31.3,15.7,0000.0,0003.76,0008.72,0002.62
2023-05-08 10:17:00,,0830.8,4.99,0.00,29.9,28.2,00.0,38.3,31.3,15.6,0000.0,0003.78,0008.17,0002.63
2023-05-08 10:18:00,,0830.8,5.00,0.00,29.9,28.2,00.0,38.3,31.3,15.5,0000.0,0003.78,0008.24,0002.63
2023-05-08 10:19:00,,0830.9,5.01,0.00,29.9,28.2,00.0,38.3,31.3,15.6,0000.0,0003.76,0008.19,0002.64
2023-05-08 10:20:00,,0830.9,5.01,0.00,29.9,28.2,00.0,38.3,31.2,15.6,0000.0,0003.77,0008.29,0002.67
2023-05-08 10:21:00,,0830.9,4.99,0.00,29.9,28.2,00.0,38.3,31.2,15.7,0000.0,0003.76,0009.07,0002.68
2023-05-08 10:22:00,,0830.8,5.00,0.00,29.9,28.2,00.0,38.3,31.2,15.7,0000.0,0003.73,0009.14,0002.68
2023-05-08 10:23:00,,0830.8,5.01,0.00,29.9,28.2,00.0,38.3,31.2,15.8,0000.0,0003.76,0009.22,0002.68
2023-05-08 10:24:00,,0830.8,5.00,0.00,29.8,28.2,00.0,38.3,31.3,15.8,0000.0,0003.73,0009.21,0002.69
2023-05-08 10:25:00,,0830.8,5.00,0.00,29.9,28.2,00.0,38.3,31.2,15.8,0000.0,0003.63,0009.38,0002.67
2023-05-08 10:26:00,,0830.8,5.01,0.00,29.9,28.2,00.0,38.3,31.2,15.8,0000.0,0003.63,0009.37,0002.70
2023-05-08 10:27:00,,0830.8,4.99,0.00,29.9,28.2,00.0,38.3,31.3,15.8,0000.0,0003.63,0009.30,0002.70
2023-05-08 10:28:00,,0830.9,5.00,0.00,29.9,28.2,00.0,38.3,31.2,15.9,0000.0,0003.67,0009.28,0002.74
2023-05-08 10:29:00,,0830.9,5.01,0.00,29.9,28.2,00.0,38.3,31.2,15.9,0000.0,0003.69,0009.87,0002.77
2023-05-08 10:30:00,,0830.9,5.01,0.00,29.9,28.2,00.0,38.3,31.2,16.0,0000.0,0003.76,0009.98,0002.81
2023-05-08 10:31:00,,0830.9,5.00,0.00,29.9,28.2,00.0,38.3,31.2,15.9,0000.0,0003.75,0010.35,0002.83
2023-05-08 10:32:00,,0831.0,5.00,0.00,29.9,28.2,00.0,38.3,31.2,15.9,0000.0,0003.73,0009.71,0002.84
2023-05-08 10:33:00,,0831.0,5.00,0.00,29.9,28.2,00.0,38.3,31.2,15.6,0000.0,0003.72,0009.50,0002.85
2023-05-08 10:34:00,,0831.0,5.00,0.00,29.8,28.2,00.0,38.3,31.2,15.5,0000.0,0003.70,0009.40,0002.83
2023-05-08 10:35:00,,0830.9,5.01,0.00,29.8,28.2,00.0,38.3,31.2,15.6,0000.0,0003.70,0009.23,0002.81
2023-05-08 10:36:00,,0831.0,5.01,0.00,29.8,28.1,00.0,38.3,31.2,15.5,0000.0,0003.69,0008.82,0002.80
2023-05-08 10:37:00,,0831.0,5.00,0.00,29.8,28.1,00.0,38.3,31.2,15.5,0000.0,0003.66,0009.08,0002.78
2023-05-08 10:38:00,,0831.0,4.99,0.00,29.8,28.1,00.0,38.2,31.2,15.6,0000.0,0003.65,0009.09,0002.77
2023-05-08 10:39:00,,0831.1,5.00,0.00,29.8,28.1,00.0,38.2,31.2,15.8,0000.0,0003.64,0009.05,0002.78
2023-05-08 10:40:00,,0831.1,5.01,0.00,29.8,28.1,00.0,38.2,31.2,15.9,0000.0,0003.65,0008.42,0002.79
2023-05-08 10:41:00,,0831.1,5.00,0.00,29.8,28.1,00.0,38.2,31.1,15.9,0000.0,0003.63,0008.49,0002.80
2023-05-08 10:42:00,,0831.1,5.00,0.00,29.8,28.1,00.0,38.2,31.2,15.8,0000.0,0003.67,0008.15,0002.81
2023-05-08 10:43:00,,0831.2,4.99,0.00,29.8,28.1,00.0,38.2,31.2,15.8,0000.0,0003.72,0008.00,0002.84
2023-05-08 10:44:00,,0831.2,4.99,0.00,29.8,28.1,00.0,38.2,31.2,15.6,0000.0,0003.72,0008.53,0002.82
2023-05-08 10:45:00,,0831.1,5.02,0.00,29.8,28.0,00.0,38.2,31.1,15.6,0000.0,0003.72,0009.14,0002.83
2023-05-08 10:46:00,,0831.2,4.99,0.00,29.8,28.0,00.0,38.2,31.1,15.6,0000.0,0003.72,0009.27,0002.83
2023-05-08 10:47:00,,0831.1,4.99,0.00,29.8,28.0,00.0,38.2,31.1,15.7,0000.0,0003.74,0009.51,0002.84
2023-05-08 10:48:00,,0831.2,4.99,0.00,29.8,28.0,00.0,38.2,31.1,15.7,0000.0,0003.78,0009.91,0002.84
2023-05-08 10:49:00,,0831.1,5.00,0.00,29.8,28.0,00.0,38.2,31.1,15.6,0000.0,0003.81,0010.23,0002.84
2023-05-08 10:50:00,,0831.2,5.00,0.00,29.8,28.1,00.0,38.2,31.1,15.6,0000.0,0003.83,0010.46,0002.82
2023-05-08 10:51:00,,0831.1,5.01,0.00,29.8,28.1,00.0,38.2,31.1,15.6,0000.0,0003.79,0010.45,0002.78
2023-05-08 10:52:00,,0831.1,5.00,0.00,29.8,28.1,00.0,38.2,31.1,15.5,0000.0,0003.75,0010.33,0002.74
2023-05-08 10:53:00,,0831.2,4.99,0.00,29.8,28.1,00.0,38.2,31.1,15.5,0000.0,0003.71,0010.22,0002.69
2023-05-08 10:54:00,,0831.2,5.01,0.00,29.8,28.1,00.0,38.2,31.2,15.5,0000.0,0003.69,0010.23,0002.66
2023-05-08 10:55:00,,0831.2,5.00,0.00,29.8,28.0,00.0,38.2,31.1,15.5,0000.0,0003.65,0009.93,0002.61
2023-05-08 10:56:00,,0831.2,5.00,0.00,29.8,28.0,00.0,38.2,31.1,15.4,0000.0,0003.61,0009.47,0002.58
2023-05-08 10:57:00,,0831.2,5.01,0.00,29.8,28.0,00.0,38.2,31.1,15.4,0000.0,0003.59,0009.06,0002.56
2023-05-08 10:58:00,,0831.2,5.01,0.00,29.7,28.0,00.0,38.2,31.1,15.3,0000.0,0003.54,0008.87,0002.53
2023-05-08 10:59:00,,0831.3,5.00,0.00,29.7,28.0,00.0,38.2,31.1,15.2,0000.0,0003.51,0008.33,0002.50
